Regional Weather Roundup
Issued by NWS

Home | Current Version | Previous Version | Text Only | Print | Product List | Glossary Off
Versions: 1 2 3 4 5 6 7 8 9 10 11 12 13 14 15 16 17 18 19 20 21 22 23 24 25 26 27 28 29 30 31 32 33 34 35 36 37 38 39 40 41 42 43 44 45 46 47 48 49 50

000
ASUS43 KMKX 241521
RWRWI

WISCONSIN REGIONAL WEATHER ROUNDUP
NATIONAL WEATHER SERVICE MILWAUKEE/SULLIVAN WI
1000 AM CDT SAT JUN 24 2017

NOTE: "FAIR" INDICATES FEW OR NO CLOUDS BELOW 12,000 FEET WITH NO
SIGNIFICANT WEATHER AND/OR OBSTRUCTIONS TO VISIBILITY.

WIZ001-002-006>008-014>016-023>028-241600-
NORTHWEST WISCONSIN

CITY           SKY/WX    TMP DP  RH WIND       PRES   REMARKS
SUPERIOR ARPT  NOT AVBL
ASHLAND        CLOUDY    57  50  77 W10G21    29.90R
HAYWARD        MOSUNNY   59  47  64 VRB3      29.93S
SIREN          MOSUNNY   59  46  62 W12       29.96F
CUMBERLAND     CLOUDY    55  43  62 NW12      29.96S
RICE LAKE      PTSUNNY   58  44  59 W12G18    29.97F
CHETEK         PTSUNNY   59  45  59 NW9G20    29.96S
LADYSMITH      PTSUNNY   61  47  61 W14G21    29.95S
EAU CLAIRE     MOSUNNY   61  42  49 W16G23    29.96F
MENOMONIE      PTSUNNY   58  40  51 W17G29    29.99R
NEW RICHMOND   MOSUNNY   60  39  45 W15G24    29.99S
OSCEOLA        SUNNY     60  41  49 W15G23    30.02S
$$

WIZ003>005-009-010-017-018-241600-
NORTH CENTRAL WISCONSIN

CITY           SKY/WX    TMP DP  RH WIND       PRES   REMARKS
MANITOWISH WTR CLOUDY    53  53 100 NW7       29.90R
ARBOR VITAE    CLOUDY    57  52  83 NW8G16    29.89R
WOODRUFF       CLOUDY    57  52  83 NW8G16    29.89R
RHINELANDER    CLOUDY    56  51  84 W13       29.90R
EAGLE RIVER    CLOUDY    56  49  76 NW9       29.88S
LAND O LAKES   CLOUDY    54  52  95 W5        29.90R
PHILLIPS       CLOUDY    55  49  81 W5        29.91S
TOMAHAWK       NOT AVBL
MEDFORD        PTSUNNY   57  46  65 W15G21    29.93R
MERRILL        CLOUDY    56  51  81 W7        29.93R
$$

WIZ029-030-035-036-043>047-241600-
CENTRAL WISCONSIN

CITY           SKY/WX    TMP DP  RH WIND       PRES   REMARKS
WAUSAU         CLOUDY    58  48  69 W13G22    29.91R
MOSINEE        CLOUDY    59  52  77 W12G18    29.93S
MARSHFIELD     MOSUNNY   61  48  62 NW15G25   29.94R
STEVENS POINT  CLOUDY    59  47  63 NW10      29.93S
WAUPACA        PTSUNNY   66  49  55 W9G18     29.91S
WAUTOMA        PTSUNNY   64  47  53 W13G22    29.93F
WISC RAPIDS    PTSUNNY   62  46  55 NW12G21   29.95S
CAMP DOUGLAS   PTSUNNY   64  46  52 NW16      29.96S
$$

WIZ011>013-019>022-031-037>040-048>050-241600-
NORTHEAST WISCONSIN

CITY           SKY/WX    TMP DP  RH WIND       PRES   REMARKS
ANTIGO         CLOUDY    55  52  88 W13G18    29.90S
SHAWANO        CLOUDY    63  53  69 W8        29.88S
OCONTO         CLOUDY    63  55  75 W8        29.86R
STURGEON BAY     N/A     63  55  75 NW9         N/A
GREEN BAY      MOSUNNY   66  58  75 W10       29.88S
MANITOWOC      CLOUDY    65  54  67 NW13G20   29.88S
APPLETON       PTSUNNY   63  48  59 W17G23    29.88S
CLINTONVILLE   PTSUNNY   63  50  63 W10       29.89S
OSHKOSH        SUNNY     65  50  58 W14G23    29.90S
$$

WIZ032>034-041-042-053>061-241600-
SOUTHWEST WISCONSIN

CITY           SKY/WX    TMP DP  RH WIND       PRES   REMARKS
LA CROSSE      PTSUNNY   67  50  54 NW16G23   29.99R
SPARTA         PTSUNNY   62  48  59 NW14      29.98S
VIROQUA        PTSUNNY   61  52  74 W13       30.00R
BOSCOBEL       MOSUNNY   65  51  60 SW8       30.00R
PRAIRIE DU CHI MOSUNNY   64  47  54 W16G22    30.01S
PLATTEVILLE    MOSUNNY   65  50  59 W13       30.01S
$$

WIZ056-057-062-063-064-067-068-241600-
SOUTH CENTRAL WISCONSIN

CITY           SKY/WX    TMP DP  RH WIND       PRES   REMARKS
REEDSBURG      PTSUNNY   65  46  50 NW13      29.97R
BARABOO/DELLS  MOSUNNY   64  45  49 NW10      29.96S
LONE ROCK      PTSUNNY   63  49  60 W10       29.98S
MINERAL POINT  MOSUNNY   64  52  63 W9        30.00R
MADISON        PTSUNNY   64  49  57 W8G17     29.96R
MIDDLETON      PTSUNNY   66  51  57 W13       29.97S
WATERTOWN      MOSUNNY   65  52  63 W13       29.94S
MONROE         PTSUNNY   64  48  55 W13G18    29.98S
JANESVILLE     PTSUNNY   66  50  55 NW15G21   29.96S
$$

WIZ051-052-058>065-066-070>072-241600-
SOUTHEAST WISCONSIN

CITY           SKY/WX    TMP DP  RH WIND       PRES   REMARKS
MILWAUKEE      MOSUNNY   68  54  60 NW16G22   29.92R
WAUKESHA       MOSUNNY   63  52  67 NW14G21   29.94S
MILWAUKEE/TIMM MOSUNNY   66  52  59 NW14G20   29.92R
RACINE         SUNNY     68  53  58 W13       29.93R
KENOSHA        MOSUNNY   67  55  65 NW15      29.93S
FOND DU LAC    MOSUNNY   66  51  58 W14G20    29.91F
SHEBOYGAN      MOSUNNY   66  57  72 NW15G22   29.88S
WEST BEND      SUNNY     64  52  63 NW14G22   29.91S
JUNEAU         MOSUNNY   63  50  64 W10G18    29.95R
$$

LSZ147-162-241600-
LAKE SUPERIOR

STATION/POSITION TIME  TEMP    WIND        PRES    WAVE
                       AIR SEA DIR/SP/G            HT/PER
                 (UTC) (F)     (DEG/KT/KT) (MB)    (FT/S)
W MID LAKE BUOY  1450   45 39  260/ 10/ 12 1011.0R   1/ 3
DEVILS ISLAND    1500   53     250/ 15/ 17 1011.8R
SAXON HARBOR     1440   58     250/  6/  8 1011.9R
$$

LMZ867-665-643>646-241600-
LAKE MICHIGAN

STATION/POSITION TIME  TEMP    WIND        PRES    WAVE
                       AIR SEA DIR/SP/G            HT/PER
                 (UTC) (F)     (DEG/KT/KT) (MB)    (FT/S)
CHAMBERS ISLAND  1440   63     250/  5/  6 1010.2S
S GREEN BAY BUOY 1500   62     280/ 10/ 12 1011.0
N MID LAKE BUOY  1450   58 56  290/  8/  8 1010.7R   1/ 4
NORTHPORT PIER   1440   62     320/  8/ 12 1010.5R
KEWAUNEE LAKESHO 1454   64     310/  6/  8 1010.9R
SHEBOYGAN LAKESH 1500   64     300/ 14/ 17 1011.6R
PORT WASHINGTON  1440   66     290/  7/ 16 1013.2R
ATWATER BUOY     1409   63 58  280/ 16/ 19 1012.6R
MILWAUKEE LAKESH 1500   65     280/  9/ 12   N/A
S MID LAKE BUOY  1450   62 61  310/ 14/ 16 1013.0R   3/ 5
KENOSHA   LAKESH 1500   66     290/ 13/ 17 1013.5
$$

TC  - TEMPERATURE IN CELSIUS
VSB - VISIBILITY IN STATUTE MILES
WCI - WIND CHILL INDEX
HX  - HEAT INDEX





USA.gov is the U.S. government's official web portal to all federal, state and local government web resources and services.